| time (UTC) | temp F | wind direction | speed MPH | gust MPH | rain 1hr in | rain 24hr in | rain mn in | humidity % | barometer mb |
| 20260906231616 | 62 | 249 | 17.0 | 23.0 | 0.00 | 0.00 | 0.00 | 81 | 1019.3 |
| 20260906231304 | 62 | 254 | 17.0 | 21.0 | 0.00 | 0.00 | 0.00 | 82 | 1019.2 |
| 20260906230804 | 62 | 257 | 20.0 | 23.0 | 0.00 | 0.00 | 0.00 | 82 | 1019.2 |
| 20260906230304 | 62 | 259 | 18.0 | 22.0 | 0.00 | 0.00 | 0.00 | 82 | 1019.2 |
| 20260906230106 | 62 | 249 | 17.0 | 22.0 | 0.00 | 0.00 | 0.00 | 81 | 1019.2 |
| 20260906224804 | 62 | 257 | 16.0 | 20.0 | 0.00 | 0.00 | 0.00 | 82 | 1019.2 |
| 20260906224612 | 62 | 237 | 15.0 | 19.0 | 0.00 | 0.00 | 0.00 | 81 | 1019.2 |
| 20260906224304 | 62 | 254 | 16.0 | 18.0 | 0.00 | 0.00 | 0.00 | 82 | 1019.2 |
| 20260906223803 | 62 | 263 | 12.0 | 18.0 | 0.00 | 0.00 | 0.00 | 82 | 1019.3 |
| 20260906223306 | 62 | 257 | 17.0 | 20.0 | 0.00 | 0.00 | 0.00 | 82 | 1019.3 |
| 20260906223111 | 62 | 256 | 14.0 | 19.0 | 0.00 | 0.00 | 0.00 | 81 | 1019.3 |
| 20260906221804 | 62 | 253 | 15.0 | 18.0 | 0.00 | 0.00 | 0.00 | 82 | 1019.3 |
| 20260906221608 | 62 | 276 | 15.0 | 19.0 | 0.00 | 0.00 | 0.00 | 81 | 1019.3 |
| 20260906220829 | 62 | 254 | 16.0 | 20.0 | 0.00 | 0.00 | 0.00 | 82 | 1019.4 |
| 20260906220304 | 62 | 253 | 16.0 | 20.0 | 0.00 | 0.00 | 0.00 | 82 | 1019.5 |
| 20260906220104 | 61 | 260 | 13.0 | 19.0 | 0.00 | 0.00 | 0.00 | 81 | 1019.5 |
| 20260906214804 | 62 | 257 | 16.0 | 18.0 | 0.00 | 0.00 | 0.00 | 82 | 1019.6 |
| 20260906214617 | 61 | 262 | 15.0 | 19.0 | 0.00 | 0.00 | 0.00 | 81 | 1019.6 |
| 20260906214304 | 62 | 256 | 15.0 | 20.0 | 0.00 | 0.00 | 0.00 | 81 | 1019.5 |
| 20260906213804 | 62 | 265 | 16.0 | 20.0 | 0.00 | 0.00 | 0.00 | 81 | 1019.6 |
| 20260906213106 | 61 | 257 | 13.0 | 18.0 | 0.00 | 0.00 | 0.00 | 80 | 1019.6 |
| 20260906211804 | 62 | 262 | 14.0 | 17.0 | 0.00 | 0.00 | 0.00 | 80 | 1019.8 |
| 20260906211606 | 61 | 259 | 13.0 | 17.0 | 0.00 | 0.00 | 0.00 | 80 | 1019.7 |
| 20260906211304 | 62 | 259 | 13.0 | 16.0 | 0.00 | 0.00 | 0.00 | 80 | 1019.7 |
| 20260906210804 | 62 | 259 | 13.0 | 17.0 | 0.00 | 0.00 | 0.00 | 80 | 1019.8 |
| 20260906210304 | 62 | 259 | 14.0 | 20.0 | 0.00 | 0.00 | 0.00 | 80 | 1019.7 |
| 20260906210114 | 61 | 264 | 13.0 | 20.0 | 0.00 | 0.00 | 0.00 | 79 | 1019.7 |
| 20260906204804 | 62 | 262 | 14.0 | 20.0 | 0.00 | 0.00 | 0.00 | 80 | 1019.8 |
| 20260906204606 | 61 | 258 | 16.0 | 20.0 | 0.00 | 0.00 | 0.00 | 79 | 1019.7 |
| 20260906203804 | 62 | 268 | 15.0 | 20.0 | 0.00 | 0.00 | 0.00 | 79 | 1019.7 |
| 20260906203305 | 62 | 262 | 13.0 | 21.0 | 0.00 | 0.00 | 0.00 | 79 | 1019.8 |
| 20260906203105 | 61 | 276 | 14.0 | 21.0 | 0.00 | 0.00 | 0.00 | 79 | 1019.8 |
| 20260906201804 | 62 | 264 | 14.0 | 20.0 | 0.00 | 0.00 | 0.00 | 79 | 1019.9 |
| 20260906201637 | 61 | 265 | 15.0 | 19.0 | 0.00 | 0.00 | 0.00 | 79 | 1019.7 |
| 20260906201304 | 62 | 267 | 12.0 | 18.0 | 0.00 | 0.00 | 0.00 | 79 | 1019.9 |
| 20260906200804 | 62 | 265 | 15.0 | 18.0 | 0.00 | 0.00 | 0.00 | 79 | 1019.7 |
| 20260906200304 | 62 | 268 | 15.0 | 18.0 | 0.00 | 0.00 | 0.00 | 79 | 1019.8 |
| 20260906200112 | 61 | 265 | 12.0 | 16.0 | 0.00 | 0.00 | 0.00 | 79 | 1019.8 |
| 20260906194804 | 62 | 259 | 12.0 | 15.0 | 0.00 | 0.00 | 0.00 | 78 | 1019.8 |
| 20260906194609 | 61 | 258 | 13.0 | 16.0 | 0.00 | 0.00 | 0.00 | 78 | 1019.8 |
| 20260906194304 | 61 | 261 | 13.0 | 15.0 | 0.00 | 0.00 | 0.00 | 78 | 1019.8 |
| 20260906193804 | 61 | 259 | 12.0 | 16.0 | 0.00 | 0.00 | 0.00 | 78 | 1020.0 |
| 20260906193304 | 61 | 264 | 12.0 | 16.0 | 0.00 | 0.00 | 0.00 | 78 | 1020.0 |
| 20260906193111 | 61 | 270 | 12.0 | 16.0 | 0.00 | 0.00 | 0.00 | 78 | 1020.0 |
| 20260906191804 | 62 | 256 | 12.0 | 15.0 | 0.00 | 0.00 | 0.00 | 78 | 1020.1 |
| 20260906191613 | 61 | 268 | 12.0 | 17.0 | 0.00 | 0.00 | 0.00 | 78 | 1020.0 |
| 20260906191305 | 62 | 272 | 13.0 | 17.0 | 0.00 | 0.00 | 0.00 | 78 | 1020.1 |
| 20260906190304 | 62 | 282 | 14.0 | 20.0 | 0.00 | 0.00 | 0.00 | 78 | 1020.1 |
| 20260906190124 | 61 | 288 | 10.0 | 16.0 | 0.00 | 0.00 | 0.00 | 78 | 1020.0 |
| 20260906184804 | 62 | 275 | 13.0 | 16.0 | 0.00 | 0.00 | 0.00 | 78 | 1020.1 |
| 20260906184603 | 61 | 283 | 13.0 | 18.0 | 0.00 | 0.00 | 0.00 | 78 | 1020.0 |
| 20260906183304 | 62 | 283 | 14.0 | 17.0 | 0.00 | 0.00 | 0.00 | 78 | 1020.2 |
| 20260906183106 | 61 | 283 | 12.0 | 17.0 | 0.00 | 0.00 | 0.00 | 77 | 1020.1 |
| 20260906181634 | 61 | 285 | 12.0 | 18.0 | 0.00 | 0.00 | 0.00 | 76 | 1020.2 |
| 20260906181304 | 61 | 286 | 12.0 | 17.0 | 0.00 | 0.00 | 0.00 | 76 | 1020.3 |
| 20260906180804 | 61 | 295 | 13.0 | 18.0 | 0.00 | 0.00 | 0.00 | 77 | 1020.2 |
| 20260906180113 | 61 | 295 | 14.0 | 20.0 | 0.00 | 0.00 | 0.00 | 76 | 1020.2 |
| 20260906174804 | 61 | 286 | 13.0 | 16.0 | 0.00 | 0.00 | 0.00 | 76 | 1020.2 |
| 20260906174616 | 61 | 289 | 12.0 | 16.0 | 0.00 | 0.00 | 0.00 | 76 | 1020.1 |
| 20260906174304 | 61 | 280 | 12.0 | 16.0 | 0.00 | 0.00 | 0.00 | 76 | 1020.2 |
| 20260906173303 | 61 | 291 | 11.0 | 15.0 | 0.00 | 0.00 | 0.00 | 76 | 1020.2 |
| 20260906173111 | 61 | 292 | 11.0 | 16.0 | 0.00 | 0.00 | 0.00 | 75 | 1020.1 |
| 20260906171804 | 61 | 297 | 12.0 | 17.0 | 0.00 | 0.00 | 0.00 | 74 | 1020.2 |
| 20260906171605 | 61 | 289 | 13.0 | 17.0 | 0.00 | 0.00 | 0.00 | 74 | 1020.2 |
| 20260906171304 | 61 | 280 | 12.0 | 16.0 | 0.00 | 0.00 | 0.00 | 75 | 1020.2 |
| 20260906170804 | 61 | 290 | 12.0 | 16.0 | 0.00 | 0.00 | 0.00 | 74 | 1020.3 |
| 20260906170107 | 61 | 295 | 12.0 | 19.0 | 0.00 | 0.00 | 0.00 | 73 | 1020.1 |
| 20260906164804 | 61 | 308 | 13.0 | 17.0 | 0.00 | 0.00 | 0.00 | 74 | 1020.3 |
| 20260906164605 | 61 | 310 | 13.0 | 19.0 | 0.00 | 0.00 | 0.00 | 73 | 1020.1 |
| 20260906164304 | 61 | 305 | 15.0 | 20.0 | 0.00 | 0.00 | 0.00 | 74 | 1020.3 |
| 20260906163804 | 61 | 300 | 16.0 | 20.0 | 0.00 | 0.00 | 0.00 | 74 | 1020.4 |
| 20260906163305 | 61 | 306 | 12.0 | 20.0 | 0.00 | 0.00 | 0.00 | 73 | 1020.3 |
| 20260906163118 | 61 | 300 | 11.0 | 20.0 | 0.00 | 0.00 | 0.00 | 73 | 1020.3 |
| 20260906161804 | 61 | 305 | 12.0 | 18.0 | 0.00 | 0.00 | 0.00 | 71 | 1020.4 |
| 20260906161611 | 61 | 320 | 12.0 | 19.0 | 0.00 | 0.00 | 0.00 | 70 | 1020.4 |
| 20260906161303 | 61 | 309 | 12.0 | 18.0 | 0.00 | 0.00 | 0.00 | 71 | 1020.4 |
| 20260906160804 | 61 | 302 | 12.0 | 17.0 | 0.00 | 0.00 | 0.00 | 73 | 1020.4 |
| 20260906160304 | 61 | 281 | 12.0 | 18.0 | 0.00 | 0.00 | 0.00 | 73 | 1020.3 |
| 20260906160105 | 61 | 284 | 11.0 | 18.0 | 0.00 | 0.00 | 0.00 | 72 | 1020.3 |
| 20260906154804 | 61 | 303 | 14.0 | 18.0 | 0.00 | 0.00 | 0.00 | 73 | 1020.4 |
| 20260906154609 | 61 | 300 | 10.0 | 17.0 | 0.00 | 0.00 | 0.00 | 72 | 1020.2 |
| 20260906154304 | 61 | 311 | 12.0 | 15.0 | 0.00 | 0.00 | 0.00 | 72 | 1020.3 |
| 20260906153804 | 61 | 294 | 10.0 | 15.0 | 0.00 | 0.00 | 0.00 | 72 | 1020.2 |
| 20260906153110 | 60 | 285 | 11.0 | 18.0 | 0.00 | 0.00 | 0.00 | 72 | 1020.2 |
| 20260906151804 | 61 | 311 | 15.0 | 20.0 | 0.00 | 0.00 | 0.00 | 72 | 1020.3 |
| 20260906151608 | 61 | 322 | 14.0 | 21.0 | 0.00 | 0.00 | 0.00 | 72 | 1020.2 |
| 20260906151304 | 61 | 301 | 15.0 | 21.0 | 0.00 | 0.00 | 0.00 | 72 | 1020.4 |
| 20260906150803 | 62 | 301 | 16.0 | 21.0 | 0.00 | 0.00 | 0.00 | 71 | 1020.4 |
| 20260906150304 | 62 | 300 | 16.0 | 22.0 | 0.00 | 0.00 | 0.00 | 72 | 1020.4 |
| 20260906150111 | 62 | 293 | 16.0 | 22.0 | 0.00 | 0.00 | 0.00 | 72 | 1020.3 |
| 20260906144603 | 61 | 310 | 17.0 | 22.0 | 0.00 | 0.00 | 0.00 | 71 | 1020.3 |
| 20260906144304 | 62 | 290 | 14.0 | 22.0 | 0.00 | 0.00 | 0.00 | 72 | 1020.4 |
| 20260906143803 | 62 | 303 | 12.0 | 21.0 | 0.00 | 0.00 | 0.00 | 73 | 1020.4 |
| 20260906143304 | 61 | 304 | 14.0 | 20.0 | 0.00 | 0.00 | 0.00 | 73 | 1020.4 |
| 20260906143104 | 61 | 310 | 14.0 | 21.0 | 0.00 | 0.00 | 0.00 | 73 | 1020.3 |
| 20260906141804 | 61 | 312 | 14.0 | 20.0 | 0.00 | 0.00 | 0.00 | 72 | 1020.2 |
| 20260906141604 | 61 | 317 | 13.0 | 21.0 | 0.00 | 0.00 | 0.00 | 72 | 1020.1 |
| 20260906141304 | 62 | 319 | 13.0 | 21.0 | 0.00 | 0.00 | 0.00 | 73 | 1020.2 |
| 20260906140804 | 61 | 306 | 14.0 | 20.0 | 0.00 | 0.00 | 0.00 | 72 | 1020.3 |
| 20260906140108 | 61 | 288 | 14.0 | 23.0 | 0.00 | 0.00 | 0.00 | 72 | 1020.3 |
| 20260906134804 | 62 | 305 | 14.0 | 21.0 | 0.00 | 0.00 | 0.00 | 72 | 1020.1 |
| 20260906134618 | 62 | 328 | 16.0 | 24.0 | 0.00 | 0.00 | 0.00 | 72 | 1020.2 |
| 20260906134304 | 62 | 325 | 17.0 | 24.0 | 0.00 | 0.00 | 0.00 | 72 | 1020.1 |
| 20260906133804 | 62 | 310 | 17.0 | 23.0 | 0.00 | 0.00 | 0.00 | 73 | 1020.0 |
| 20260906133117 | 62 | 310 | 17.0 | 26.0 | 0.00 | 0.00 | 0.00 | 72 | 1019.7 |
| 20260906131610 | 62 | 300 | 17.0 | 25.0 | 0.00 | 0.00 | 0.00 | 69 | 1019.9 |
| 20260906131304 | 63 | 301 | 13.0 | 25.0 | 0.00 | 0.00 | 0.00 | 71 | 1020.0 |
| 20260906130113 | 63 | 314 | 13.0 | 23.0 | 0.00 | 0.00 | 0.00 | 71 | 1019.7 |
| 20260906124804 | 62 | 310 | 18.0 | 21.0 | 0.00 | 0.00 | 0.00 | 72 | 1019.9 |
| 20260906124610 | 62 | 300 | 14.0 | 24.0 | 0.00 | 0.00 | 0.00 | 72 | 1019.7 |
| 20260906124304 | 62 | 300 | 14.0 | 20.0 | 0.00 | 0.00 | 0.00 | 73 | 1019.8 |
| 20260906123804 | 63 | 308 | 14.0 | 25.0 | 0.00 | 0.00 | 0.00 | 72 | 1019.8 |
| 20260906123104 | 62 | 305 | 13.0 | 22.0 | 0.00 | 0.00 | 0.00 | 72 | 1019.6 |
| 20260906121804 | 63 | 321 | 14.0 | 22.0 | 0.00 | 0.00 | 0.00 | 72 | 1019.7 |
| 20260906121627 | 62 | 315 | 16.0 | 24.0 | 0.00 | 0.00 | 0.00 | 72 | 1019.6 |
| 20260906121304 | 63 | 322 | 16.0 | 24.0 | 0.00 | 0.00 | 0.00 | 73 | 1019.6 |
| 20260906120804 | 63 | 321 | 15.0 | 20.0 | 0.00 | 0.00 | 0.00 | 73 | 1019.6 |
| 20260906120304 | 63 | 317 | 16.0 | 25.0 | 0.00 | 0.00 | 0.00 | 74 | 1019.7 |
| 20260906120103 | 62 | 300 | 13.0 | 25.0 | 0.00 | 0.00 | 0.00 | 74 | 1019.6 |
| 20260906114804 | 63 | 299 | 16.0 | 24.0 | 0.00 | 0.00 | 0.00 | 73 | 1019.6 |
| 20260906114627 | 62 | 331 | 17.0 | 24.0 | 0.00 | 0.00 | 0.00 | 73 | 1019.5 |
| 20260906114304 | 63 | 312 | 16.0 | 23.0 | 0.00 | 0.00 | 0.00 | 73 | 1019.5 |
| 20260906113804 | 62 | 316 | 17.0 | 23.0 | 0.00 | 0.00 | 0.00 | 71 | 1019.5 |
| 20260906113304 | 63 | 308 | 16.0 | 22.0 | 0.00 | 0.00 | 0.00 | 71 | 1019.4 |
| 20260906113115 | 63 | 310 | 17.0 | 22.0 | 0.00 | 0.00 | 0.00 | 70 | 1019.3 |
| 20260906111804 | 63 | 308 | 14.0 | 20.0 | 0.00 | 0.00 | 0.00 | 71 | 1019.2 |
| 20260906111606 | 63 | 305 | 15.0 | 22.0 | 0.00 | 0.00 | 0.00 | 72 | 1019.1 |
| 20260906111304 | 63 | 321 | 16.0 | 21.0 | 0.00 | 0.00 | 0.00 | 72 | 1019.1 |
| 20260906110804 | 63 | 314 | 15.0 | 20.0 | 0.00 | 0.00 | 0.00 | 71 | 1019.1 |
| 20260906110304 | 63 | 316 | 14.0 | 20.0 | 0.00 | 0.00 | 0.00 | 71 | 1019.0 |
| 20260906110110 | 62 | 310 | 13.0 | 20.0 | 0.00 | 0.00 | 0.00 | 71 | 1018.9 |
| 20260906104804 | 63 | 318 | 17.0 | 21.0 | 0.00 | 0.13 | 0.00 | 73 | 1019.0 |
| 20260906104605 | 63 | 318 | 16.0 | 22.0 | 0.00 | 0.00 | 0.00 | 73 | 1018.9 |
| 20260906104304 | 63 | 318 | 17.0 | 22.0 | 0.00 | 0.13 | 0.00 | 73 | 1018.8 |
| 20260906103804 | 63 | 316 | 16.0 | 22.0 | 0.00 | 0.13 | 0.00 | 73 | 1018.8 |
| 20260906103305 | 63 | 322 | 17.0 | 21.0 | 0.00 | 0.13 | 0.00 | 73 | 1018.7 |
| 20260906103103 | 62 | 310 | 12.0 | 20.0 | 0.00 | 0.00 | 0.00 | 73 | 1018.6 |
| 20260906101804 | 63 | 314 | 13.0 | 20.0 | 0.00 | 0.13 | 0.00 | 74 | 1018.5 |
| 20260906101606 | 62 | 305 | 12.0 | 22.0 | 0.00 | 0.00 | 0.00 | 73 | 1018.4 |
| 20260906101303 | 62 | 325 | 11.0 | 22.0 | 0.00 | 0.13 | 0.00 | 74 | 1018.5 |
| 20260906100804 | 62 | 317 | 13.0 | 22.0 | 0.00 | 0.13 | 0.00 | 74 | 1018.5 |
| 20260906100110 | 62 | 318 | 15.0 | 20.0 | 0.00 | 0.00 | 0.00 | 74 | 1018.4 |
| 20260906094815 | 63 | 314 | 15.0 | 20.0 | 0.00 | 0.13 | 0.00 | 74 | 1018.4 |
| 20260906094608 | 62 | 314 | 13.0 | 21.0 | 0.00 | 0.00 | 0.00 | 74 | 1018.3 |
| 20260906094304 | 63 | 322 | 16.0 | 21.0 | 0.00 | 0.13 | 0.00 | 74 | 1018.3 |
| 20260906093804 | 63 | 318 | 10.0 | 20.0 | 0.00 | 0.27 | 0.00 | 73 | 1018.2 |
| 20260906093108 | 62 | 333 | 13.0 | 21.0 | 0.00 | 0.00 | 0.00 | 73 | 1018.1 |
| 20260906091804 | 63 | 316 | 14.0 | 21.0 | 0.00 | 0.27 | 0.00 | 74 | 1017.9 |
| 20260906091616 | 62 | 305 | 15.0 | 21.0 | 0.00 | 0.00 | 0.00 | 74 | 1018.0 |
| 20260906091304 | 63 | 321 | 13.0 | 20.0 | 0.00 | 0.27 | 0.00 | 74 | 1017.9 |
| 20260906090803 | 63 | 317 | 12.0 | 17.0 | 0.00 | 0.27 | 0.00 | 74 | 1017.7 |
| 20260906090112 | 62 | 327 | 10.0 | 20.0 | 0.00 | 0.00 | 0.00 | 74 | 1017.8 |
| 20260906084804 | 62 | 326 | 13.0 | 20.0 | 0.00 | 0.27 | 0.00 | 74 | 1017.7 |
| 20260906084607 | 62 | 329 | 11.0 | 20.0 | 0.00 | 0.01 | 0.00 | 74 | 1017.6 |
| 20260906084304 | 62 | 322 | 15.0 | 20.0 | 0.00 | 0.27 | 0.00 | 75 | 1017.7 |
| 20260906083804 | 62 | 331 | 12.0 | 20.0 | 0.00 | 0.27 | 0.00 | 75 | 1017.7 |
| 20260906083304 | 62 | 321 | 11.0 | 20.0 | 0.00 | 0.27 | 0.00 | 75 | 1017.6 |
| 20260906083107 | 62 | 333 | 10.0 | 20.0 | 0.00 | 0.01 | 0.00 | 75 | 1017.5 |
| 20260906081804 | 62 | 335 | 16.0 | 20.0 | 0.00 | 0.28 | 0.00 | 76 | 1017.5 |
| 20260906081605 | 62 | 335 | 12.0 | 20.0 | 0.00 | 0.01 | 0.00 | 75 | 1017.4 |
| 20260906081304 | 62 | 326 | 12.0 | 18.0 | 0.00 | 0.28 | 0.00 | 76 | 1017.3 |
| 20260906080804 | 62 | 319 | 14.0 | 20.0 | 0.00 | 0.28 | 0.00 | 77 | 1017.3 |
| 20260906080304 | 62 | 329 | 13.0 | 20.0 | 0.00 | 0.28 | 0.00 | 76 | 1017.2 |
| 20260906080111 | 61 | 305 | 12.0 | 19.0 | 0.00 | 0.01 | 0.00 | 76 | 1017.2 |
| 20260906074603 | 62 | 344 | 12.0 | 20.0 | 0.00 | 0.01 | 0.00 | 77 | 1017.1 |
| 20260906074304 | 62 | 332 | 13.0 | 20.0 | 0.00 | 0.28 | 0.00 | 77 | 1017.0 |
| 20260906073804 | 62 | 339 | 14.0 | 20.0 | 0.00 | 0.40 | 0.00 | 77 | 1016.9 |
| 20260906073305 | 62 | 325 | 12.0 | 20.0 | 0.00 | 0.40 | 0.00 | 77 | 1016.8 |
| 20260906073103 | 61 | 340 | 14.0 | 19.0 | 0.00 | 0.01 | 0.00 | 77 | 1016.7 |
| 20260906071614 | 61 | 337 | 14.0 | 21.0 | 0.00 | 0.01 | 0.00 | 77 | 1016.5 |
| 20260906071305 | 62 | 329 | 13.0 | 21.0 | 0.00 | 0.40 | 0.00 | 78 | 1016.5 |
| 20260906070804 | 62 | 328 | 16.0 | 21.0 | 0.00 | 0.40 | 0.00 | 78 | 1016.5 |
| 20260906070304 | 61 | 336 | 14.0 | 20.0 | 0.00 | 0.52 | 0.00 | 78 | 1016.4 |
| 20260906070106 | 61 | 324 | 12.0 | 20.0 | 0.00 | 0.01 | 0.00 | 78 | 1016.4 |
| 20260906064804 | 61 | 324 | 16.0 | 21.0 | 0.00 | 0.52 | 0.00 | 79 | 1016.3 |
| 20260906064603 | 61 | 338 | 12.0 | 21.0 | 0.00 | 0.01 | 0.00 | 78 | 1016.2 |
| 20260906064304 | 61 | 328 | 12.0 | 18.0 | 0.00 | 0.52 | 0.00 | 78 | 1016.2 |
| 20260906063804 | 61 | 329 | 14.0 | 20.0 | 0.00 | 0.52 | 0.00 | 79 | 1016.3 |
| 20260906063304 | 61 | 333 | 14.0 | 20.0 | 0.00 | 0.52 | 0.00 | 79 | 1016.1 |
| 20260906063105 | 60 | 354 | 11.0 | 22.0 | 0.00 | 0.01 | 0.00 | 78 | 1016.1 |
| 20260906061608 | 60 | 330 | 13.0 | 22.0 | 0.00 | 0.01 | 0.00 | 79 | 1016.0 |
| 20260906061304 | 61 | 332 | 14.0 | 21.0 | 0.00 | 0.52 | 0.00 | 79 | 1016.0 |
| 20260906060804 | 61 | 335 | 13.0 | 21.0 | 0.00 | 0.52 | 0.00 | 79 | 1016.0 |
| 20260906060304 | 61 | 335 | 17.0 | 23.0 | 0.00 | 0.52 | 0.00 | 79 | 1015.9 |
| 20260906060151 | 60 | 339 | 16.0 | 22.0 | 0.00 | 0.01 | 0.00 | 79 | 1015.9 |
| 20260906054804 | 60 | 332 | 15.0 | 21.0 | 0.00 | 0.52 | 0.00 | 80 | 1015.7 |
| 20260906054616 | 60 | 339 | 14.0 | 21.0 | 0.00 | 0.01 | 0.00 | 79 | 1015.7 |
| 20260906054304 | 60 | 329 | 16.0 | 21.0 | 0.00 | 0.52 | 0.00 | 80 | 1015.7 |
| 20260906053804 | 60 | 333 | 12.0 | 20.0 | 0.00 | 0.52 | 0.00 | 80 | 1015.6 |
| 20260906053304 | 60 | 334 | 12.0 | 21.0 | 0.00 | 0.52 | 0.00 | 80 | 1015.4 |
| 20260906053105 | 60 | 339 | 13.0 | 21.0 | 0.00 | 0.01 | 0.00 | 79 | 1015.4 |
| 20260906051804 | 60 | 330 | 16.0 | 22.0 | 0.00 | 0.52 | 0.00 | 80 | 1015.2 |
| 20260906051605 | 60 | 330 | 11.0 | 20.0 | 0.00 | 0.01 | 0.00 | 80 | 1015.2 |
| 20260906051304 | 60 | 326 | 11.0 | 20.0 | 0.00 | 0.52 | 0.00 | 80 | 1015.1 |
| 20260906050804 | 60 | 323 | 12.0 | 20.0 | 0.00 | 0.52 | 0.00 | 80 | 1015.2 |
| 20260906050304 | 60 | 334 | 14.0 | 22.0 | 0.00 | 0.52 | 0.00 | 81 | 1015.1 |
| 20260906050116 | 60 | 320 | 13.0 | 22.0 | 0.00 | 0.01 | 0.00 | 80 | 1015.0 |
| 20260906044804 | 60 | 329 | 15.0 | 23.0 | 0.00 | 0.52 | 0.00 | 80 | 1014.9 |
| 20260906044602 | 60 | 314 | 15.0 | 23.0 | 0.00 | 0.01 | 0.00 | 80 | 1014.9 |
| 20260906043112 | 60 | 342 | 15.0 | 22.0 | 0.00 | 0.01 | 0.00 | 80 | 1014.7 |
| 20260906041604 | 60 | 337 | 14.0 | 23.0 | 0.00 | 0.01 | 0.00 | 80 | 1014.3 |
| 20260906041304 | 60 | 339 | 14.0 | 18.0 | 0.00 | 0.64 | 0.00 | 80 | 1014.4 |
| 20260906040804 | 60 | 327 | 13.0 | 22.0 | 0.00 | 0.64 | 0.00 | 80 | 1014.3 |
| 20260906040111 | 60 | 333 | 14.0 | 24.0 | 0.00 | 0.01 | 0.00 | 80 | 1014.1 |
| 20260906034804 | 60 | 339 | 16.0 | 22.0 | 0.00 | 0.64 | 0.00 | 80 | 1014.0 |
| 20260906034603 | 60 | 339 | 16.0 | 25.0 | 0.00 | 0.01 | 0.00 | 80 | 1014.0 |
| 20260906034304 | 60 | 337 | 17.0 | 23.0 | 0.00 | 0.64 | 0.00 | 80 | 1014.0 |
| 20260906033804 | 60 | 332 | 16.0 | 25.0 | 0.00 | 0.64 | 0.00 | 80 | 1014.0 |
| 20260906033107 | 60 | 324 | 14.0 | 22.0 | 0.00 | 0.01 | 0.00 | 79 | 1013.9 |
| 20260906031804 | 61 | 341 | 16.0 | 21.0 | 0.00 | 0.64 | 0.00 | 80 | 1013.7 |
| 20260906031630 | 60 | 332 | 13.0 | 22.0 | 0.00 | 0.01 | 0.00 | 79 | 1013.6 |
| 20260906031304 | 60 | 336 | 16.0 | 22.0 | 0.00 | 0.64 | 0.00 | 80 | 1013.7 |
| 20260906030804 | 60 | 333 | 14.0 | 22.0 | 0.00 | 0.64 | 0.00 | 80 | 1013.7 |
| 20260906030109 | 60 | 339 | 14.0 | 21.0 | 0.00 | 0.01 | 0.00 | 80 | 1013.6 |
| 20260906024804 | 61 | 335 | 15.0 | 21.0 | 0.00 | 0.64 | 0.00 | 80 | 1013.5 |
| 20260906024608 | 60 | 329 | 14.0 | 24.0 | 0.00 | 0.01 | 0.00 | 80 | 1013.4 |
| 20260906023804 | 61 | 338 | 14.0 | 24.0 | 0.00 | 0.64 | 0.00 | 81 | 1013.3 |
| 20260906023304 | 61 | 337 | 17.0 | 24.0 | 0.00 | 0.64 | 0.00 | 81 | 1013.3 |
| 20260906023113 | 60 | 332 | 15.0 | 24.0 | 0.00 | 0.01 | 0.00 | 80 | 1013.3 |
| 20260906021804 | 61 | 342 | 16.0 | 21.0 | 0.00 | 0.76 | 0.00 | 81 | 1013.1 |
| 20260906021607 | 60 | 332 | 13.0 | 22.0 | 0.00 | 0.01 | 0.00 | 80 | 1013.1 |
| 20260906021304 | 61 | 336 | 16.0 | 20.0 | 0.00 | 0.76 | 0.00 | 81 | 1013.0 |
| 20260906020804 | 61 | 333 | 16.0 | 22.0 | 0.00 | 0.76 | 0.00 | 81 | 1013.0 |
| 20260906020109 | 60 | 322 | 15.0 | 26.0 | 0.00 | 0.01 | 0.00 | 80 | 1012.9 |
| 20260906014804 | 61 | 335 | 16.0 | 21.0 | 0.00 | 0.76 | 0.00 | 80 | 1012.8 |
| 20260906014607 | 60 | 351 | 15.0 | 23.0 | 0.00 | 0.01 | 0.00 | 80 | 1012.8 |
| 20260906014304 | 61 | 334 | 14.0 | 23.0 | 0.00 | 0.76 | 0.00 | 80 | 1012.8 |
| 20260906013804 | 61 | 340 | 15.0 | 22.0 | 0.00 | 0.76 | 0.00 | 80 | 1012.8 |
| 20260906013304 | 61 | 333 | 16.0 | 23.0 | 0.00 | 0.76 | 0.00 | 80 | 1012.7 |
| 20260906013104 | 60 | 310 | 15.0 | 23.0 | 0.00 | 0.01 | 0.00 | 80 | 1012.7 |
| 20260906011804 | 61 | 334 | 12.0 | 20.0 | 0.00 | 0.76 | 0.00 | 80 | 1012.7 |
| 20260906011612 | 61 | 314 | 14.0 | 20.0 | 0.00 | 0.01 | 0.00 | 80 | 1012.6 |
| 20260906011304 | 61 | 337 | 13.0 | 18.0 | 0.00 | 0.76 | 0.00 | 80 | 1012.6 |
| 20260906010114 | 60 | 327 | 9.0 | 19.0 | 0.00 | 0.01 | 0.00 | 80 | 1012.4 |
| 20260906004804 | 61 | 340 | 11.0 | 15.0 | 0.00 | 0.80 | 0.00 | 80 | 1012.1 |
| 20260906004603 | 60 | 339 | 10.0 | 19.0 | 0.00 | 0.07 | 0.00 | 80 | 1012.0 |
| 20260906004304 | 61 | 344 | 13.0 | 18.0 | 0.00 | 0.80 | 0.00 | 80 | 1012.1 |
| 20260906003804 | 61 | 342 | 11.0 | 20.0 | 0.00 | 0.80 | 0.00 | 81 | 1012.0 |
| 20260906003304 | 61 | 345 | 9.0 | 16.0 | 0.00 | 0.81 | 0.00 | 81 | 1011.9 |
| 20260906003108 | 60 | 343 | 11.0 | 16.0 | 0.00 | 0.07 | 0.00 | 80 | 1011.8 |
| 20260906001613 | 60 | 330 | 10.0 | 18.0 | 0.00 | 0.07 | 0.00 | 81 | 1011.7 |
| 20260906000804 | 61 | 338 | 13.0 | 18.0 | 0.00 | 0.81 | 0.00 | 82 | 1011.8 |
| 20260906000110 | 61 | 336 | 12.0 | 17.0 | 0.00 | 0.07 | 0.00 | 81 | 1011.7 |
| 20260905234804 | 61 | 335 | 16.0 | 20.0 | 0.00 | 0.84 | 0.00 | 82 | 1011.5 |
| 20260905234611 | 60 | 345 | 13.0 | 19.0 | 0.00 | 0.12 | 0.00 | 81 | 1011.5 |
| 20260905234304 | 61 | 338 | 13.0 | 18.0 | 0.00 | 0.84 | 0.00 | 82 | 1011.5 |
| 20260905233805 | 61 | 335 | 12.0 | 17.0 | 0.00 | 0.85 | 0.00 | 82 | 1011.5 |
| 20260905233112 | 60 | 345 | 11.0 | 17.0 | 0.00 | 0.12 | 0.00 | 82 | 1011.4 |
| 20260905231804 | 61 | 333 | 13.0 | 18.0 | 0.00 | 0.85 | 0.00 | 83 | 1011.3 |